This demonstration page uses our WeatherBlox Daily Observations layout. Learn more.

Left ArrowRight Arrow

Hourly Observations for December 3, 2022

Temp ( °F °C ) Dew Point ( °F °C ) Humidity (%) Winds ( mph kmh ) Pressure ( in mb ) Visibility ( mi km ) Precip ( " mm )
12:56 am 00:56 Clear 15 -9.4 6 -14.4 67 67 NW 7 11 30.44 1031 10 16 0.00 0.00
1:56 am 01:56 Clear 12 -11.1 5 -15 73 73 WNW 8 13 30.47 1032 10 16 0.00 0.00
2:56 am 02:56 Clear 12 -11.1 5 -15 73 73 W 8 13 30.54 1034 10 16 0.00 0.00
3:56 am 03:56 Clear 13 -10.6 5 -15 70 70 W 7 11 30.56 1035 10 16 0.00 0.00
4:56 am 04:56 Clear 11 -11.7 4 -15.6 73 73 W 6 9 30.57 1035 10 16 0.00 0.00
5:56 am 05:56 Clear 11 -11.7 6 -14.4 80 80 SW 8 13 30.58 1036 10 16 0.00 0.00
6:56 am 06:56 Clear 11 -11.7 6 -14.4 80 80 WSW 8 13 30.60 1036 10 16 0.00 0.00
7:56 am 07:56 Sunny 10 -12.2 6 -14.4 84 84 Calm 30.62 1037 10 16 0.00 0.00
8:56 am 08:56 Sunny 16 -8.9 10 -12.2 77 77 SW 6 9 30.61 1037 10 16 0.00 0.00
9:56 am 09:56 Sunny 23 -5 13 -10.6 65 65 WSW 9 15 30.58 1036 10 16 0.00 0.00
10:56 am 10:56 Sunny 28 -2.2 15 -9.4 58 58 SW 10 17 30.56 1035 10 16 0.00 0.00
11:56 am 11:56 Sunny 37 2.8 13 -10.6 36 36 SW 17 28 30.51 1033 10 16 0.00 0.00
12:56 pm 12:56 Sunny 39 3.9 11 -11.7 31 31 SSW 22 35 30.46 1032 10 16 0.00 0.00
1:56 pm 13:56 Sunny 40 4.4 12 -11.1 31 31 SW 25 41 30.42 1030 10 16 0.00 0.00
2:56 pm 14:56 Sunny 41 5 11 -11.7 29 29 SSW 20 31 30.38 1029 10 16 0.00 0.00
3:56 pm 15:56 Sunny 42 5.6 8 -13.3 24 24 SSW 21 33 30.36 1028 10 16 0.00 0.00
4:56 pm 16:56 Sunny 37 2.8 7 -13.9 28 28 SSW 13 20 30.36 1028 10 16 0.00 0.00
5:56 pm 17:56 Clear 33 0.6 8 -13.3 34 34 SSW 12 19 30.35 1028 10 16 0.00 0.00
6:56 pm 18:56 Clear 29 -1.7 10 -12.2 44 44 S 10 17 30.37 1028 10 16 0.00 0.00
7:56 pm 19:56 Clear 28 -2.2 10 -12.2 46 46 SSW 7 11 30.37 1029 10 16 0.00 0.00
8:56 pm 20:56 Clear 23 -5 10 -12.2 57 57 ESE 9 15 30.37 1028 10 16 0.00 0.00
9:56 pm 21:56 Clear 22 -5.6 10 -12.2 60 60 S 7 11 30.35 1028 10 16 0.00 0.00
10:56 pm 22:56 Clear 20 -6.7 9 -12.8 62 62 E 3 6 30.32 1027 10 16 0.00 0.00
11:56 pm 23:56 Clear 24 -4.4 11 -11.7 57 57 SSW 12 19 30.27 1025 10 16 0.00 0.00

Powered by AerisWeather